<form id="rhvll"><nobr id="rhvll"></nobr></form>

    <sub id="rhvll"><listing id="rhvll"></listing></sub>

        <em id="rhvll"></em>

          <sub id="rhvll"><nobr id="rhvll"><nobr id="rhvll"></nobr></nobr></sub>

            1. 首页Wed Mar 20 15:34:50 CST 2024
            2. 走进格利普Wed Mar 20 15:34:50 CST 2024
            3. 公司介绍视频Wed Mar 20 15:34:50 CST 2024
            4. 公司简介Wed Mar 20 15:34:50 CST 2024
            5. 成立时间Wed Mar 20 15:34:50 CST 2024
            6. “格”为商Wed Mar 20 15:34:50 CST 2024
            7. 成都格利普生物有限公司Wed Mar 20 15:34:50 CST 2024
            8. “利”为重Wed Mar 20 15:34:50 CST 2024
            9. 生产厂区Wed Mar 20 15:34:50 CST 2024
            10. 天然产物分离实验室Wed Mar 20 15:34:50 CST 2024
            11. “普”为道Wed Mar 20 15:34:50 CST 2024
            12. 合作高校与机构Wed Mar 20 15:34:50 CST 2024
            13. 公司荣誉Wed Mar 20 15:34:50 CST 2024
            14. 发展历程Wed Mar 20 15:34:50 CST 2024
            15. 荣获“企业信用评价AAA级信用企业”Sat Apr 01 00:00:00 CST 2023
            16. 通过CNAS实验室认可复审Wed Mar 01 00:00:00 CST 2023
            17. 搬迁至联东U谷先进制造产业园Wed Jun 01 00:00:00 CST 2022
            18. 四川农业大学生命科学学院就业实践与教学实习基地在格利普挂牌Sun May 01 00:00:00 CST 2022
            19. 荣获“温江区雏鹰企业”Thu Apr 01 00:00:00 CST 2021
            20. 通过CNAS实验室认可Mon Feb 01 00:00:00 CST 2021
            21. 获得“国家高新技术企业”Sat Feb 01 00:00:00 CST 2020
            22. 荣获“中国商业联合会科技进步二等奖”Sun Dec 01 00:00:00 CST 2019
            23. 获得成都市“专精特新”企业Sun Dec 01 00:00:00 CST 2019
            24. 入围中国食品药品检定研究院中药标准物质原料供应商Tue Oct 01 00:00:00 CST 2019
            25. 荣获中国商业联合会科学技术奖全国商业科技进步奖证书Fri Feb 01 00:00:00 CST 2019
            26. 获得ISO9001质量管理体系认证证书Sat Dec 01 00:00:00 CST 2018
            27. 成立成都格利普生物科技有限公司Sat Aug 01 00:00:00 CST 2015
            28. 搬迁至成都温江医学城Thu Jan 01 00:00:00 CST 2015
            29. 成立成都普菲德生物技术有限公司Fri Apr 01 00:00:00 CST 2011
            30. 成立合伙公司Fri Aug 01 00:00:00 CST 2008
            31. 企业风采Wed Mar 20 15:34:50 CST 2024
            32. 2020年夏季户外团建Wed Mar 20 15:34:50 CST 2024
            33. 年会Wed Mar 20 15:34:50 CST 2024
            34. 年会Wed Mar 20 15:34:50 CST 2024
            35. 嘉年会Wed Mar 20 15:34:50 CST 2024
            36. 团建Wed Mar 20 15:34:50 CST 2024
            37. 团建Wed Mar 20 15:34:50 CST 2024
            38. 团建Wed Mar 20 15:34:50 CST 2024
            39. 年会Wed Mar 20 15:34:50 CST 2024
            40. 团建Wed Mar 20 15:34:50 CST 2024
            41. 设施设备Wed Mar 20 15:34:50 CST 2024
            42. 1T-3T 多功能提取罐浓缩Wed Mar 20 15:34:50 CST 2024
            43. 实验室设备Wed Mar 20 15:34:50 CST 2024
            44. 实验室设备Wed Mar 20 15:34:50 CST 2024
            45. 超高效液相色谱仪Wed Mar 20 15:34:50 CST 2024
            46. 高效液相色谱仪Wed Mar 20 15:34:50 CST 2024
            47. 蒸发光散射检测仪Wed Mar 20 15:34:50 CST 2024
            48. 实验室检测Wed Mar 20 15:34:50 CST 2024
            49. 产品中心Wed Mar 20 15:34:50 CST 2024
            50. 产品说明书Wed Mar 20 15:34:50 CST 2024
            51. 温馨提示Wed Mar 20 15:34:50 CST 2024
            52. 产品库Wed Mar 20 15:34:50 CST 2024
            53. 分析对照品Wed Mar 20 15:34:50 CST 2024
            54. 中药对照品Wed Mar 20 15:34:50 CST 2024
            55. 化学对照品Wed Mar 20 15:34:50 CST 2024
            56. 对照药材Wed Mar 20 15:34:50 CST 2024
            57. 中检院产品Wed Mar 20 15:34:50 CST 2024
            58. 农残(空白基质)Wed Mar 20 15:34:50 CST 2024
            59. 化合物单体库Wed Mar 20 15:34:50 CST 2024
            60. 植物来源库Wed Mar 20 15:34:50 CST 2024
            61. 标准库Wed Mar 20 15:34:50 CST 2024
            62. 配方颗粒标准库Wed Mar 20 15:34:50 CST 2024
            63. 药典标准库Wed Mar 20 15:34:50 CST 2024
            64. 技术支持Wed Mar 20 15:34:50 CST 2024
            65. 更多监测项目Wed Mar 20 15:34:50 CST 2024
            66. 委托测试单Wed Mar 20 15:34:50 CST 2024
            67. 产品服务Wed Mar 20 15:34:50 CST 2024
            68. 检测服务Wed Mar 20 15:34:50 CST 2024
            69. 信息中心Wed Mar 20 15:34:50 CST 2024
            70. 公司新闻Wed Mar 20 15:34:50 CST 2024
            71. 格利普 | 热烈欢迎成都医学院实习生小伙伴加入格利普Tue Jan 02 17:12:29 CST 2024
            72. 格利普 | 冬至里的烟火气,来喝一碗热气腾腾的羊肉汤吧!Fri Dec 22 14:32:11 CST 2023
            73. 恭喜格利普通过2023年中国食品药品检定研究院能力验证计划,结果均为满意!Wed Dec 13 15:24:32 CST 2023
            74. 格利普 | 分析测试中心Waters高效液相色谱仪培训中!Wed Dec 13 15:12:42 CST 2023
            75. 格利普 | 西南医科大学品牌推广会,打卡成功√Wed Nov 15 17:55:55 CST 2023
            76. 格利普 | 深化产教合作,赋能产业和教育的高质量发展!Fri Oct 27 09:06:19 CST 2023
            77. 格利普 | PH计实操训练Thu Oct 19 17:45:45 CST 2023
            78. 格利普 | 转发集赞免费送?开学有礼享不停Wed Oct 11 16:52:27 CST 2023
            79. 格利普 | 志高存远·不负韶华——成都格利普实习生欢送晚会圆满结束!Wed Oct 11 16:27:38 CST 2023
            80. 约“惠”格利普,一大波福利正在派送中~Wed Oct 11 15:41:27 CST 2023
            81. 论文发布Wed Mar 20 15:34:50 CST 2024
            82. Determination of multicomponents from Zhuanggu Guanjie Capsule in rat plasma by UHPLC–MS/MS and pharmacokinetic studyFri Jan 19 15:14:13 CST 2024
            83. Tetrahydroxy stilbene glycoside alleviated inflammatory damage by mitophagy via AMPK related PINK1/Parkin signaling pathwayThu Oct 19 17:30:55 CST 2023
            84. Tetrahydroxy stilbene glycoside ameliorates Alzheimer’s disease in APP/ PS1 mice via glutathione peroxidase related ferroptosisThu Oct 19 17:29:19 CST 2023
            85. Tetrahydroxy stilbene glycoside alleviated inflammatory damage by mitophagy via AMPK related PINK1/Parkin signaling pathwayThu Oct 19 17:27:48 CST 2023
            86. Integrated metabolomics and network pharmacology to reveal the therapeutic mechanism of Dingkun Pill on polycystic ovary syndromeThu Oct 19 16:55:20 CST 2023
            87. Homeostatic regulation of the aryl hydrocarbon receptor-cytochrome P450 1a axis by Scutellaria baicalensis-Coptis chinensis herb pair and its main constituentsThu Oct 19 16:52:52 CST 2023
            88. Sesquiterpene lactones-rich fraction from Aucklandia lappa Decne. alleviates dextran sulfate sodium induced ulcerative colitis through co-regulating MAPK and Nrf2/Hmox-1 signaling pathwayThu Oct 19 16:50:40 CST 2023
            89. Characterization of the chemical constituents and in vivo metabolic profile of Scutellaria barbata D. Don by ultra high performance liquid chromatography with high-resolution mass spectrometryWed Oct 11 16:25:51 CST 2023
            90. Non-targeted characteristic filter analysis combined with in silico prediction strategies to identify the chemical components and in vivo metabolites of Dalitong Granules by UPLC-Q-TOF/MS/MSWed Oct 11 16:23:08 CST 2023
            91. Folate-modified triptolide liposomes target activated macrophages for safe rheumatoid arthritis therapyWed Oct 11 15:45:38 CST 2023
            92. 行业资讯Wed Mar 20 15:34:50 CST 2024
            93. 又一地发布20个中药配方颗粒标准!Wed Oct 11 15:57:53 CST 2023
            94. 【国家药监局】严管中药配方颗粒,配方颗粒无法替代中药饮片Wed Oct 11 15:55:10 CST 2023
            95. 新品研发Wed Mar 20 15:34:50 CST 2024
            96. 格利普 | 新品专题系列—白及Thu Jan 11 10:02:55 CST 2024
            97. 格利普 | 新品专题系列—霍山石斛Thu Dec 14 17:43:46 CST 2023
            98. 雷公藤新碱|41758-69-4Thu Nov 30 15:20:07 CST 2023
            99. 雷公藤定碱|37239-51-3Thu Nov 30 15:14:34 CST 2023
            100. 格利普 | 新品大合集系列—雷公藤Thu Nov 30 15:00:08 CST 2023
            101. 格利普专题对照品产品推荐-葛根系列Mon Nov 27 15:51:12 CST 2023
            102. 格利普专题对照品产品推荐-诃子系列Tue Nov 21 14:45:39 CST 2023
            103. 格利普 | 新品大合集系列—鼓槌石斛Wed Oct 11 16:18:31 CST 2023
            104. 联系我们Wed Mar 20 15:34:50 CST 2024
            105. 售后技术支持Wed Mar 20 15:34:50 CST 2024
            106. 产品订购Wed Mar 20 15:34:50 CST 2024
            107. 地址Wed Mar 20 15:34:50 CST 2024
            108. 经纬度Wed Mar 20 15:34:50 CST 2024
            109. 座机分机号Wed Mar 20 15:34:50 CST 2024
            110. 咨询热线Wed Mar 20 15:34:50 CST 2024
            111. VIP专线Wed Mar 20 15:34:50 CST 2024
            112. 联系方式Wed Mar 20 15:34:50 CST 2024
            113. 留言板Wed Mar 20 15:34:50 CST 2024
            114. 客户服务热线Wed Mar 20 15:34:50 CST 2024
            115. 五月天综合网,亚洲综合小说另类图片动图 99视频国产热精品视频 四虎影视国产精品一区